Location: Newark
(45.4422°N, 16.2769°E)
Time: 04:44:00
(UTC+00:00)

Explorer 7 - Pass Details

Date: 25 January 2021
Orbit: 484 x 677 km, 50.3° (Epoch: 05 March)

Event Time Altitude Azimuth Distance (km) Brightness Sun altitude
Exits shadow 04:39:06 45° 299° (WNW) 713 6.9 -18.2°
Maximum altitude 04:39:55 55° 344° (NNW) 628 6.9 -18.0°
Drops below altitude 10° 04:43:55 10° 63° (ENE) 1,799 10.2 -17.4°
Sets 04:46:16 0° 68° (ENE) 2,728 11.4 -16.9°
